GW0217 Weather Reports


time (UTC)temp
C
wind
direction
speed
KPH
gust
KPH
rain 1hr
cm
rain 24hr
cm
rain mn
cm
humidity
%
barometer
mb
20260906231027 25 194 14.5 22.5 0.00 0.00 0.00 27 1015.7
20260906230053 25 208 12.9 24.1 0.00 0.00 0.00 27 1015.9
20260906225029 26 231 14.5 27.4 0.00 0.00 0.00 26 1016.2
20260906224029 26 222 14.5 20.9 0.00 0.00 0.00 26 1016.3
20260906222031 27 186 12.9 20.9 0.00 0.00 0.00 26 1018.0
20260906221026 28 213 11.3 19.3 0.00 0.00 0.00 26 1018.4
20260906220028 28 238 12.9 17.7 0.00 0.00 0.00 26 1018.4
20260906215028 28 219 12.9 22.5 0.00 0.00 0.00 25 1018.9
20260906214024 29 222 11.3 16.1 0.00 0.00 0.00 24 1019.3
20260906213024 30 203 12.9 12.9 0.00 0.00 0.00 22 1019.2
20260906212025 28 203 12.9 20.9 0.00 0.00 0.00 25 1019.5
20260906211027 27 229 11.3 22.5 0.00 0.00 0.00 27 1018.8
20260906210054 26 212 11.3 17.7 0.00 0.00 0.00 27 1018.7
20260906205029 26 207 12.9 20.9 0.00 0.00 0.00 27 1018.7
20260906204020 27 194 12.9 19.3 0.00 0.00 0.00 27 1019.6
20260906203022 27 228 11.3 12.9 0.00 0.00 0.00 27 1019.6
20260906202023 27 208 12.9 16.1 0.00 0.00 0.00 27 1019.7
20260906201024 28 194 9.7 17.7 0.00 0.00 0.00 27 1020.1
20260906200029 27 229 8.0 16.1 0.00 0.00 0.00 27 1020.5
20260906195055 27 182 8.0 9.7 0.00 0.00 0.00 29 1020.8
20260906194021 27 221 6.4 11.3 0.00 0.00 0.00 29 1020.5
20260906193042 26 204 4.8 11.3 0.00 0.00 0.00 30 1020.5
20260906192028 26 133 4.8 8.0 0.00 0.00 0.00 30 1020.8
20260906191030 26 230 4.8 17.7 0.00 0.00 0.00 30 1020.5
20260906190021 26 221 4.8 4.8 0.00 0.00 0.00 29 1021.0
20260906185022 26 194 6.4 12.9 0.00 0.00 0.00 30 1021.6
20260906184023 26 205 6.4 8.0 0.00 0.00 0.00 29 1022.1
20260906183052 26 259 6.4 22.5 0.00 0.00 0.00 30 1021.7
20260906182029 26 268 6.4 12.9 0.00 0.00 0.00 30 1022.7
20260906181211 25 231 6.4 6.4 0.00 0.00 0.00 31 1022.4
20260906180023 25 216 6.4 14.5 0.00 0.00 0.00 31 1022.8
20260906175024 25 183 4.8 8.0 0.00 0.00 0.00 32 1023.4
20260906174026 24 113 6.4 17.7 0.00 0.00 0.00 33 1023.4
20260906173027 23 23 4.8 11.3 0.00 0.00 0.00 32 1022.9
20260906171104 22 55 4.8 9.7 0.00 0.00 0.00 33 1023.2
20260906170120 22 55 4.8 9.7 0.00 0.00 0.00 34 1023.4
20260906165031 21 139 4.8 11.3 0.00 0.00 0.00 35 1023.4
20260906164021 21 61 4.8 9.7 0.00 0.00 0.00 37 1023.2
20260906163048 20 51 4.8 9.7 0.00 0.00 0.00 38 1022.9
20260906162101 18 102 3.2 8.0 0.00 0.00 0.00 41 1023.1
20260906161053 18 41 3.2 8.0 0.00 0.00 0.00 42 1022.6
20260906155023 16 14 3.2 3.2 0.00 0.00 0.00 46 1022.3
20260906154024 16 15 3.2 8.0 0.00 0.00 0.00 48 1022.4
20260906153027 15 53 4.8 6.4 0.00 0.00 0.00 49 1021.9
20260906152027 14 0 3.2 8.0 0.00 0.00 0.00 51 1021.7
20260906151029 13 11 3.2 3.2 0.00 0.00 0.00 53 1021.5
20260906145027 12 86 3.2 3.2 0.00 0.00 0.00 56 1020.5
20260906144027 11 31 3.2 6.4 0.00 0.00 0.00 58 1019.5
20260906143028 11 351 1.6 1.6 0.00 0.00 0.00 60 1019.5
20260906142030 11 336 1.6 3.2 0.00 0.00 0.00 63 1019.6
20260906141021 10 127 0.0 1.6 0.00 0.00 0.00 65 1019.3
20260906135023 10 143 0.0 0.0 0.00 0.00 0.00 64 1019.5
20260906134232 10 160 0.0 1.6 0.00 0.00 0.00 63 1019.0
20260906133020 10 148 1.6 1.6 0.00 0.00 0.00 63 1019.0
20260906132047 10 178 1.6 3.2 0.00 0.00 0.00 63 1019.3
20260906131025 10 158 0.0 3.2 0.00 0.00 0.00 63 1019.3
20260906130035 10 0.0 0.0 0.00 0.00 0.00 63 1019.2
20260906125117 10 0.0 0.0 0.00 0.00 0.00 63 1019.6
20260906123055 10 229 1.6 1.6 0.00 0.00 0.00 61 1019.3
20260906122054 10 158 0.0 3.2 0.00 0.00 0.00 61 1020.1
20260906121029 10 252 1.6 1.6 0.00 0.00 0.00 60 1020.1
20260906120049 10 306 1.6 3.2 0.00 0.00 0.00 59 1020.0
20260906115024 10 335 1.6 3.2 0.00 0.00 0.00 59 1020.4
20260906114025 10 246 1.6 3.2 0.00 0.00 0.00 60 1020.4
20260906113038 11 304 1.6 4.8 0.00 0.00 0.00 62 1020.8
20260906111029 11 208 1.6 4.8 0.00 0.00 0.00 61 1021.6
20260906110120 11 198 3.2 3.2 0.00 0.00 0.00 61 1021.3
20260906105032 11 184 3.2 4.8 0.00 0.00 0.00 60 1021.7
20260906104028 11 334 1.6 3.2 0.00 0.00 0.00 60 1021.8
20260906103028 11 233 0.0 0.0 0.00 0.00 0.00 60 1021.8
20260906102030 12 189 0.0 1.6 0.00 0.00 0.00 59 1021.9
20260906101030 12 145 0.0 1.6 0.00 0.00 0.00 58 1021.9
20260906100021 12 307 0.0 3.2 0.00 0.00 0.00 58 1021.6
20260906095023 12 21 0.0 0.0 0.00 0.00 0.00 58 1021.3
20260906094025 12 279 1.6 1.6 0.00 0.00 0.00 58 1021.1
20260906093027 12 333 1.6 4.8 0.00 0.00 0.00 57 1021.5
20260906092132 12 159 1.6 6.4 0.00 0.00 0.00 56 1021.4
20260906091027 13 67 0.0 3.2 0.00 0.00 0.00 55 1021.7
20260906090029 13 214 0.0 1.6 0.00 0.00 0.00 55 1021.5
20260906085031 13 312 1.6 1.6 0.00 0.00 0.00 54 1020.8
20260906084021 13 293 0.0 0.0 0.00 0.00 0.00 53 1020.4
20260906083023 13 194 1.6 3.2 0.00 0.00 0.00 53 1020.5
20260906082024 13 135 0.0 1.6 0.00 0.00 0.00 53 1020.7
20260906081025 14 259 0.0 1.6 0.00 0.00 0.00 52 1020.7
20260906075027 15 0.0 0.0 0.00 0.00 0.00 49 1020.7
20260906074028 15 0.0 0.0 0.00 0.00 0.00 49 1020.7
20260906073030 15 178 0.0 1.6 0.00 0.00 0.00 48 1020.7
20260906072020 15 270 0.0 3.2 0.00 0.00 0.00 47 1019.8
20260906071214 16 288 0.0 0.0 0.00 0.00 0.00 47 1020.1
20260906070023 16 337 0.0 3.2 0.00 0.00 0.00 47 1020.2
20260906065024 16 321 1.6 1.6 0.00 0.00 0.00 45 1019.8
20260906064027 16 223 0.0 0.0 0.00 0.00 0.00 44 1019.6
20260906063028 17 345 0.0 1.6 0.00 0.00 0.00 43 1020.0
20260906062029 17 194 1.6 3.2 0.00 0.00 0.00 41 1019.9
20260906061030 17 158 1.6 3.2 0.00 0.00 0.00 41 1019.9
20260906060043 18 201 1.6 3.2 0.00 0.00 0.00 40 1019.9
20260906055027 18 135 0.0 1.6 0.00 0.00 0.00 39 1019.4
20260906054054 18 299 0.0 1.6 0.00 0.00 0.00 38 1019.6
20260906052021 20 342 1.6 3.2 0.00 0.00 0.00 35 1019.5
20260906051022 20 60 1.6 3.2 0.00 0.00 0.00 34 1019.6
20260906050023 20 174 3.2 4.8 0.00 0.00 0.00 34 1019.5
20260906045026 21 152 4.8 8.0 0.00 0.00 0.00 34 1019.0
20260906044208 21 114 6.4 8.0 0.00 0.00 0.00 33 1019.1
20260906043028 21 227 8.0 9.7 0.00 0.00 0.00 32 1019.1
20260906042029 22 204 9.7 12.9 0.00 0.00 0.00 31 1018.5
20260906041046 22 234 9.7 12.9 0.00 0.00 0.00 30 1018.3
20260906040022 22 217 9.7 14.5 0.00 0.00 0.00 30 1018.5
20260906035026 22 203 9.7 16.1 0.00 0.00 0.00 30 1017.9
20260906034026 22 216 9.7 16.1 0.00 0.00 0.00 30 1017.5
20260906033102 22 219 9.7 11.3 0.00 0.00 0.00 30 1017.5
20260906032053 22 193 9.7 12.9 0.00 0.00 0.00 30 1017.1
20260906031030 22 217 11.3 12.9 0.00 0.00 0.00 29 1017.0
20260906030033 22 211 9.7 19.3 0.00 0.00 0.00 29 1016.9
20260906025025 22 230 8.0 12.9 0.00 0.00 0.00 29 1016.9
20260906024028 23 189 8.0 9.7 0.00 0.00 0.00 29 1016.7
20260906023030 23 211 9.7 9.7 0.00 0.00 0.00 28 1016.7
20260906022046 23 254 9.7 14.5 0.00 0.00 0.00 28 1016.5
20260906021022 23 211 11.3 11.3 0.00 0.00 0.00 28 1016.9
20260906020049 23 208 12.9 22.5 0.00 0.00 0.00 27 1016.9
20260906015024 24 217 12.9 17.7 0.00 0.00 0.00 27 1016.9
20260906014026 24 193 11.3 19.3 0.00 0.00 0.00 27 1017.0
20260906012029 25 216 11.3 12.9 0.00 0.00 0.00 27 1017.6
20260906011045 25 203 11.3 19.3 0.00 0.00 0.00 27 1017.6
20260906005114 26 211 12.9 24.1 0.00 0.00 0.00 25 1018.6
20260906004050 26 197 12.9 17.7 0.00 0.00 0.00 24 1018.1
20260906003026 26 206 12.9 16.1 0.00 0.00 0.00 24 1018.4
20260906002028 26 203 11.3 16.1 0.00 0.00 0.00 25 1019.2
20260906001027 27 217 12.9 16.1 0.00 0.00 0.00 25 1019.3
20260906000028 27 197 12.9 22.5 0.00 0.00 0.00 24 1019.7
20260905235030 28 171 12.9 19.3 0.00 0.00 0.00 24 1019.7
20260905234023 28 205 11.3 16.1 0.00 0.00 0.00 23 1020.2
20260905233023 29 178 12.9 19.3 0.00 0.00 0.00 22 1020.3
20260905232025 30 176 9.7 20.9 0.00 0.00 0.00 22 1020.7